When you browse on this site, cookies collect data to enhance your experience and personalize the content and advertising you see.
Visit our Privacy Policy to learn more. By continuing to use the site, you agree to this use of cookies and data.
  • Em Portugal
  • Lista de países
  • Para 7 dias
  • Temperatura da água
  • Mapas de satélite
  • Mapa do tempo
  • Widgets de tempo
  • user-avatar
    Iniciar Sessão

    Previsão horária em Kavarna

    Hoje, 21 Janeiro, Segunda-feira

    Tempo Temperatura Precipitação Vento Pressão Humidade
    00:00 +7°C° 0.1 mm 4 m/s 760 mmHg 93%
    01:00 +6°C° 0.1 mm 4 m/s 760 mmHg 93%
    02:00 +5°C° 0 mm 4 m/s 760 mmHg 93%
    03:00 +5°C° 0 mm 5 m/s 760 mmHg 91%
    04:00 +3°C° 0 mm 6 m/s 760 mmHg 89%
    05:00 +2°C° 0 mm 6 m/s 760 mmHg 87%
    06:00 +2°C° 0 mm 7 m/s 761 mmHg 86%
    07:00 0°C° 0 mm 7 m/s 761 mmHg 84%
    08:00 0°C° 0 mm 7 m/s 761 mmHg 83%
    09:00 0°C° 0 mm 7 m/s 762 mmHg 81%
    10:00 +2°C° 0 mm 7 m/s 762 mmHg 80%
    11:00 +2°C° 0 mm 7 m/s 763 mmHg 78%
    12:00 +2°C° 0 mm 7 m/s 763 mmHg 75%
    13:00 +3°C° 0 mm 6 m/s 763 mmHg 72%
    14:00 +3°C° 0 mm 6 m/s 763 mmHg 69%
    15:00 +2°C° 0 mm 6 m/s 764 mmHg 71%
    16:00 +2°C° 0 mm 6 m/s 764 mmHg 73%
    17:00 +1°C° 0 mm 5 m/s 765 mmHg 75%
    18:00 +1°C° 0 mm 5 m/s 765 mmHg 77%
    19:00 0°C° 0 mm 5 m/s 765 mmHg 79%
    20:00 0°C° 0 mm 5 m/s 765 mmHg 81%
    21:00 -1°C° 0 mm 5 m/s 765 mmHg 81%
    22:00 -1°C° 0 mm 4 m/s 766 mmHg 82%
    23:00 -1°C° 0 mm 4 m/s 766 mmHg 83%

    Amanhã, 22 Janeiro, Terça-feira

    Tempo Temperatura Precipitação Vento Pressão Humidade
    00:00 0°C° 0 mm 3 m/s 766 mmHg 84%
    01:00 0°C° 0 mm 3 m/s 766 mmHg 84%
    02:00 0°C° 0 mm 3 m/s 766 mmHg 85%
    03:00 0°C° 0 mm 3 m/s 765 mmHg 86%
    04:00 +1°C° 0 mm 2 m/s 765 mmHg 86%
    05:00 +1°C° 0 mm 2 m/s 765 mmHg 87%
    06:00 0°C° 0 mm 3 m/s 765 mmHg 86%
    07:00 +1°C° 0 mm 3 m/s 765 mmHg 85%
    08:00 +1°C° 0 mm 3 m/s 765 mmHg 84%
    09:00 +2°C° 0 mm 3 m/s 764 mmHg 83%
    10:00 +1°C° 0 mm 4 m/s 764 mmHg 81%
    11:00 +3°C° 0 mm 4 m/s 764 mmHg 79%
    12:00 +3°C° 0.1 mm 4 m/s 763 mmHg 80%
    13:00 +3°C° 0.1 mm 4 m/s 763 mmHg 81%
    14:00 +3°C° 0.1 mm 4 m/s 762 mmHg 82%
    15:00 +3°C° 0.1 mm 4 m/s 762 mmHg 84%
    16:00 +2°C° 0.1 mm 5 m/s 761 mmHg 85%
    17:00 +2°C° 0.1 mm 5 m/s 761 mmHg 87%
    18:00 +2°C° 0 mm 6 m/s 760 mmHg 88%
    19:00 +3°C° 0 mm 6 m/s 760 mmHg 89%
    20:00 +3°C° 0 mm 7 m/s 759 mmHg 90%
    21:00 +3°C° 0 mm 7 m/s 759 mmHg 90%
    22:00 +3°C° 0 mm 7 m/s 759 mmHg 90%
    23:00 +4°C° 0 mm 7 m/s 758 mmHg 90%

    Depois de amanhã, 23 Janeiro, Quarta-feira

    Tempo Temperatura Precipitação Vento Pressão Humidade
    00:00 +4°C° 0 mm 7 m/s 758 mmHg 91%
    01:00 +4°C° 0 mm 7 m/s 757 mmHg 93%
    02:00 +4°C° 0 mm 6 m/s 756 mmHg 94%
    03:00 +5°C° 0.1 mm 6 m/s 756 mmHg 94%
    04:00 +5°C° 0.1 mm 6 m/s 755 mmHg 95%
    05:00 +5°C° 0.1 mm 7 m/s 754 mmHg 96%
    06:00 +5°C° 3.2 mm 7 m/s 754 mmHg 96%
    07:00 +6°C° 3.2 mm 8 m/s 753 mmHg 95%
    08:00 +6°C° 3.2 mm 9 m/s 753 mmHg 95%
    09:00 +7°C° 0.1 mm 10 m/s 753 mmHg 91%
    10:00 +7°C° 0.1 mm 10 m/s 753 mmHg 87%
    11:00 +8°C° 0.1 mm 10 m/s 753 mmHg 83%
    12:00 +9°C° 0 mm 10 m/s 752 mmHg 80%
    13:00 +10°C° 0 mm 9 m/s 752 mmHg 77%
    14:00 +11°C° 0 mm 8 m/s 752 mmHg 74%
    15:00 +10°C° 0 mm 8 m/s 752 mmHg 77%
    16:00 +10°C° 0 mm 8 m/s 752 mmHg 80%
    17:00 +9°C° 0 mm 7 m/s 752 mmHg 82%
    18:00 +9°C° 0 mm 7 m/s 752 mmHg 84%
    19:00 +9°C° 0 mm 8 m/s 752 mmHg 86%
    20:00 +7°C° 0 mm 8 m/s 752 mmHg 88%
    21:00 +7°C° 0 mm 8 m/s 752 mmHg 89%
    22:00 +7°C° 0 mm 8 m/s 753 mmHg 89%
    23:00 +8°C° 0 mm 7 m/s 753 mmHg 90%

    24 Janeiro, Quinta-feira

    Tempo Temperatura Precipitação Vento Pressão Humidade
    00:00 +8°C° 0 mm 7 m/s 753 mmHg 90%
    01:00 +8°C° 0 mm 7 m/s 753 mmHg 91%
    02:00 +7°C° 0 mm 8 m/s 753 mmHg 91%
    03:00 +8°C° 0.4 mm 7 m/s 753 mmHg 93%
    04:00 +8°C° 0.4 mm 6 m/s 752 mmHg 95%
    05:00 +8°C° 0.4 mm 6 m/s 752 mmHg 97%
    06:00 +7°C° 0.2 mm 6 m/s 752 mmHg 96%
    07:00 +7°C° 0.2 mm 6 m/s 752 mmHg 95%
    08:00 +7°C° 0.2 mm 6 m/s 752 mmHg 94%
    09:00 +8°C° 0 mm 6 m/s 752 mmHg 90%
    10:00 +8°C° 0 mm 6 m/s 752 mmHg 85%
    11:00 +9°C° 0 mm 5 m/s 752 mmHg 80%
    12:00 +9°C° 0 mm 6 m/s 752 mmHg 79%
    13:00 +9°C° 0 mm 6 m/s 751 mmHg 78%
    14:00 +9°C° 0 mm 7 m/s 751 mmHg 77%
    15:00 +9°C° 0 mm 7 m/s 751 mmHg 82%
    16:00 +8°C° 0 mm 7 m/s 751 mmHg 88%
    17:00 +6°C° 0 mm 8 m/s 751 mmHg 94%
    18:00 +6°C° 0 mm 9 m/s 751 mmHg 93%
    19:00 +5°C° 0 mm 9 m/s 752 mmHg 93%
    20:00 +5°C° 0 mm 10 m/s 753 mmHg 93%
    21:00 +5°C° 0 mm 10 m/s 753 mmHg 93%
    22:00 +5°C° 0 mm 10 m/s 753 mmHg 93%
    23:00 +5°C° 0 mm 10 m/s 753 mmHg 93%

    25 Janeiro, Sexta-feira

    Tempo Temperatura Precipitação Vento Pressão Humidade
    00:00 +5°C° 0.1 mm 10 m/s 753 mmHg 93%
    01:00 +5°C° 0.1 mm 10 m/s 754 mmHg 93%
    02:00 +3°C° 0.1 mm 9 m/s 754 mmHg 93%
    03:00 +3°C° 0 mm 10 m/s 754 mmHg 92%
    04:00 +2°C° 0 mm 10 m/s 754 mmHg 92%
    05:00 +2°C° 0 mm 10 m/s 754 mmHg 91%
    06:00 +2°C° 0.1 mm 10 m/s 754 mmHg 91%
    07:00 +2°C° 0.1 mm 10 m/s 755 mmHg 91%
    08:00 +2°C° 0.1 mm 9 m/s 755 mmHg 92%
    09:00 +2°C° 0.2 mm 9 m/s 755 mmHg 91%
    10:00 +2°C° 0.2 mm 9 m/s 755 mmHg 91%
    11:00 +2°C° 0.2 mm 9 m/s 756 mmHg 91%
    12:00 +2°C° 0.1 mm 9 m/s 755 mmHg 91%
    13:00 +2°C° 0.1 mm 8 m/s 755 mmHg 92%
    14:00 +2°C° 0.1 mm 8 m/s 755 mmHg 92%
    15:00 +2°C° 0.2 mm 8 m/s 755 mmHg 93%
    16:00 +2°C° 0.2 mm 8 m/s 755 mmHg 94%
    17:00 +2°C° 0.2 mm 8 m/s 755 mmHg 95%
    18:00 +2°C° 0.3 mm 8 m/s 755 mmHg 95%
    19:00 +4°C° 0.3 mm 8 m/s 755 mmHg 96%
    20:00 +4°C° 0.3 mm 8 m/s 755 mmHg 97%
    21:00 +4°C° 0.3 mm 8 m/s 754 mmHg 97%
    22:00 +5°C° 0.3 mm 7 m/s 754 mmHg 97%
    23:00 +5°C° 0.3 mm 7 m/s 754 mmHg 97%

    26 Janeiro, Sábado

    Tempo Temperatura Precipitação Vento Pressão Humidade
    00:00 +5°C° 0.6 mm 7 m/s 753 mmHg 98%
    01:00 +5°C° 0.6 mm 7 m/s 753 mmHg 98%
    02:00 +5°C° 0.6 mm 7 m/s 753 mmHg 98%
    03:00 +5°C° 1.3 mm 7 m/s 752 mmHg 98%
    04:00 +5°C° 1.3 mm 7 m/s 752 mmHg 98%
    05:00 +5°C° 1.3 mm 7 m/s 752 mmHg 98%
    06:00 +5°C° 0.3 mm 7 m/s 752 mmHg 97%
    07:00 +5°C° 0.3 mm 7 m/s 752 mmHg 97%
    08:00 +5°C° 0.3 mm 6 m/s 752 mmHg 97%
    09:00 +7°C° 0.1 mm 5 m/s 752 mmHg 96%
    10:00 +7°C° 0.1 mm 4 m/s 752 mmHg 95%
    11:00 +8°C° 0.1 mm 3 m/s 753 mmHg 95%
    12:00 +8°C° 0 mm 3 m/s 753 mmHg 94%
    13:00 +8°C° 0 mm 3 m/s 753 mmHg 94%
    14:00 +8°C° 0 mm 2 m/s 752 mmHg 94%
    15:00 +6°C° 0 mm 4 m/s 753 mmHg 94%
    16:00 +4°C° 0 mm 6 m/s 753 mmHg 93%
    17:00 +3°C° 0 mm 7 m/s 753 mmHg 93%
    18:00 +1°C° 0.5 mm 8 m/s 753 mmHg 93%
    19:00 +1°C° 0.5 mm 8 m/s 754 mmHg 92%
    20:00 +1°C° 0.5 mm 8 m/s 754 mmHg 91%
    21:00 0°C° 0.3 mm 8 m/s 754 mmHg 91%
    22:00 0°C° 0.3 mm 8 m/s 754 mmHg 91%
    23:00 -1°C° 0.3 mm 9 m/s 754 mmHg 90%
    Mostrar mais